SCP
1 1 0 1 1 1 1 0 0 0 0 0 0 0 0 0 0 0 1 1 0 1 1 2 2 2 2 3 3 3 2 2 2 2 2 2 1 1 1 1 1 1 1 1 1 1 1 1 1
1 1 0 1 1 1 0 0 0 0 0 0 0 0 0 0 0 1 1 1 0 1 1 2 2 2 2 3 3 3 3 2 2 2 2 2 1 1 1 1 1 1 1 1 1 1 1 1 1
1 0 0 1 0 0 0 0 0 0 0 0 0 0 0 0 1 1 1 1 1 1 1 2 3 3 2 3 4 3 3 3 2 2 2 2 2 2 1 1 1 1 1 1 1 1 1 1 1
1 1 0 0 0 0 0 0 0 0 0 0 0 0 0 0 1 1 1 1 1 1 1 2 2 3 3 3 3 3 3 3 2 2 2 2 2 2 2 2 2 1 1 1 1 1 1 1 1
1 1 1 0 0 0 0 0 0 0 0 0 0 0 0 0 1 1 1 1 1 1 1 1 2 2 2 3 3 3 2 2 2 2 2 2 2 3 2 2 2 2 1 2 1 1 1 1 1
2 1 1 0 0 0 0 0 0 0 0 0 0 0 0 1 1 1 1 2 1 1 1 2 2 2 2 2 3 3 2 2 2 2 2 2 2 2 2 2 2 2 2 2 2 2 2 1 1
2 1 1 0 0 0 0 0 0 0 0 0 0 0 1 1 1 1 1 1 1 1 2 2 2 2 2 2 2 3 2 2 2 2 2 2 2 2 2 2 2 2 2 2 2 2 2 2 1
2 1 0 0 0 1 1 0 0 0 0 0 0 0 1 1 1 1 1 1 1 1 1 2 2 2 2 2 2 2 2 2 2 2 2 2 2 2 2 2 2 2 2 2 2 3 2 2 2
1 1 0 0 0 1 1 0 0 0 0 0 0 0 1 1 1 1 1 1 1 1 1 2 2 2 2 2 2 2 2 1 1 2 2 2 2 2 2 2 2 2 2 2 3 3 2 2 2
1 0 0 0 0 1 1 0 0 0 0 0 0 0 1 1 1 1 1 1 1 1 1 1 2 2 2 2 2 2 2 2 1 1 2 2 2 2 2 2 2 2 2 2 3 3 2 2 2
0 0 0 0 0 0 0 0 0 0 0 0 0 1 1 1 1 1 1 1 1 1 1 1 2 2 2 2 2 2 2 2 2 2 2 2 2 3 3 3 3 3 3 3 3 2 2 2 2
0 0 0 0 0 0 0 0 0 0 0 0 0 1 1 1 1 1 1 1 1 1 1 1 1 2 2 2 2 2 3 2 2 2 2 2 2 3 3 3 3 3 3 3 3 3 2 2 2
0 0 0 0 0 0 0 0 0 0 0 0 0 1 1 1 1 1 1 1 1 1 1 1 1 1 2 2 2 2 2 2 2 2 2 2 3 3 3 3 3 4 4 4 3 3 2 2 2
0 0 0 0 0 0 0 0 0 0 0 0 0 0 0 0 0 1 1 1 1 1 1 1 1 1 1 1 2 2 2 2 2 2 2 2 3 3 3 3 3 3 4 4 4 3 3 2 2
0 0 0 0 0 0 0 0 0 0 0 0 0 0 0 0 0 0 1 1 0 0 1 1 1 1 1 1 1 2 2 3 3 2 2 2 2 3 3 3 3 3 4 4 4 4 3 3 2
0 0 0 0 0 0 0 0 0 0 0 0 0 0 0 0 0 0 0 1 1 0 0 1 1 1 0 1 1 2 2 3 3 2 2 2 2 2 3 3 3 3 3 4 4 4 4 3 3
0 0 0 0 0 0 0 0 0 0 0 0 0 0 0 0 0 0 0 1 1 1 1 1 1 1 0 0 1 2 2 3 3 2 1 1 2 2 2 3 3 2 3 3 4 4 4 4 3
0 0 0 0 0 0 0 0 0 0 0 0 0 0 0 0 0 0 0 0 1 1 1 1 1 1 0 0 0 1 2 3 3 2 1 1 1 2 2 3 2 2 2 3 3 4 4 4 3
0 0 0 0 0 0 0 0 0 0 0 0 0 0 0 0 0 0 0 0 1 1 1 1 1 1 0 0 0 1 2 3 3 2 1 1 1 2 2 2 2 2 2 2 2 3 3 3 3
0 0 0 0 0 0 0 0 0 0 0 0 0 0 0 0 0 0 0 0 1 1 2 1 1 1 0 0 0 1 2 3 3 2 1 1 1 2 2 2 2 2 1 1 2 2 2 2 2
0 0 0 0 0 0 0 0 0 0 0 0 0 0 0 0 0 0 0 0 1 2 2 2 2 1 1 0 0 1 1 2 2 1 1 1 2 2 2 2 2 2 1 1 1 1 2 2 2
0 0 0 0 0 0 0 0 0 0 0 0 0 0 0 0 0 0 0 0 0 1 2 2 2 1 1 1 1 1 1 1 2 2 1 1 1 2 2 2 2 2 1 1 1 1 1 2 2
0 0 0 0 0 0 0 0 0 0 0 0 0 0 0 0 0 0 0 0 0 1 2 3 2 2 1 1 1 1 1 1 2 2 2 1 1 1 2 2 2 1 1 1 1 1 1 1 1
0 0 0 0 0 0 0 0 0 0 0 0 0 0 0 0 0 0 0 0 0 1 2 3 3 2 1 1 1 1 2 2 2 2 1 1 0 1 1 1 1 1 1 1 1 1 1 1 1
0 0 0 0 0 0 0 0 0 0 0 0 0 0 0 0 0 0 0 0 0 1 2 3 3 2 1 1 1 2 2 2 2 2 1 0 0 0 1 1 1 1 1 1 1 1 1 1 1
0 0 0 0 0 0 0 0 0 0 0 0 0 0 0 0 0 0 0 0 0 1 2 3 3 3 2 2 2 2 2 2 2 1 0 0 0 0 0 0 0 0 0 1 1 1 1 1 1
0 0 0 0 0 0 0 0 0 0 0 0 0 0 0 0 0 0 0 0 0 1 2 3 3 3 2 2 2 1 1 1 1 0 0 0 0 0 0 0 0 0 0 0 0 1 1 1 1
0 0 0 0 0 0 0 0 0 0 0 0 0 0 0 0 0 0 0 0 0 1 2 3 4 3 2 2 1 1 0 0 0 0 0 0 0 0 0 0 0 0 0 0 1 1 1 1 1
0 0 0 0 0 0 0 0 0 0 0 0 0 0 0 0 0 0 0 0 1 1 3 3 3 2 1 1 0 0 0 0 0 0 0 0 0 0 0 0 0 0 0 1 1 1 1 1 1
0 0 0 0 0 0 0 0 0 0 0 0 0 0 0 0 0 0 0 0 1 2 3 3 2 1 0 0 0 0 0 0 0 0 0 0 0 0 0 0 0 0 0 1 1 2 2 2 1
Wind_Speed
4 2 2 3 5 5 8 5 3 3 2 0 1 2 2 2 2 3 5 4 4 2 2 4 4 4 4 4 4 5 5 5 5 5 4 5 5 5 6 6 5 6 5 6 6 6 6 7 7
2 2 3 3 6 8 7 6 6 3 1 1 1 2 2 1 4 4 2 3 3 3 3 3 5 4 5 5 5 5 5 5 5 4 4 4 5 5 5 5 5 5 5 5 5 6 6 6 7
0 1 3 4 6 9 6 3 3 2 2 2 1 1 1 2 3 2 3 2 2 2 2 4 5 5 5 5 5 4 4 4 4 4 4 4 4 4 4 4 5 5 5 5 5 5 5 6 6
2 3 3 5 9 7 4 1 3 3 2 1 2 2 2 3 2 2 2 1 2 2 2 4 4 4 5 5 5 4 4 4 4 4 4 4 3 3 3 4 4 4 4 4 5 5 5 5 5
2 3 6 7 9 5 3 2 3 4 3 2 2 2 2 3 3 3 3 2 2 3 3 4 4 4 4 4 5 4 4 4 3 3 3 3 3 3 3 3 4 4 3 4 4 4 4 4 4
3 4 7 9 9 5 4 3 4 5 3 2 2 3 2 3 3 3 3 2 2 3 2 3 4 4 4 4 4 4 4 3 3 3 3 3 2 2 3 3 3 3 3 3 3 4 4 4 4
3 4 7 8 7 6 3 3 5 5 5 3 2 3 3 3 2 2 2 2 3 3 2 3 3 3 4 4 4 4 4 4 3 3 3 3 2 2 3 3 3 2 2 3 3 3 3 3 3
2 3 6 7 8 6 2 2 1 4 3 1 2 4 3 2 1 1 1 2 2 3 3 3 3 2 2 2 4 4 4 4 4 3 4 3 2 2 2 2 2 2 2 2 2 2 3 3 3
3 5 7 7 6 3 2 2 1 1 2 2 2 3 2 2 2 2 1 1 2 3 3 3 3 2 2 2 2 2 3 3 2 2 3 2 1 1 2 1 2 1 1 2 2 2 2 2 3
4 7 7 2 3 2 2 2 1 3 4 4 3 1 1 3 3 3 2 1 0 1 2 2 2 2 2 1 1 0 1 1 1 0 0 1 1 0 0 1 2 1 1 2 2 2 3 3 2
4 5 3 2 2 2 2 2 2 5 5 5 5 3 3 4 4 4 3 2 1 0 1 2 2 1 1 1 1 0 1 1 1 0 1 1 1 1 0 1 1 1 2 2 2 3 2 2 2
4 3 3 2 1 3 3 3 3 6 6 4 3 2 4 5 5 5 4 3 2 1 1 2 2 1 1 1 0 1 0 1 1 1 1 1 1 1 1 1 1 1 1 1 2 2 3 3 3
5 3 2 2 2 3 3 5 5 7 6 4 2 3 4 5 5 5 4 3 2 2 2 2 2 2 1 1 1 1 1 1 1 1 1 2 1 1 1 1 1 1 1 1 2 3 3 3 4
2 3 3 4 4 3 3 5 6 6 4 3 3 4 4 4 5 4 4 3 3 3 2 2 2 2 2 1 1 1 1 1 1 1 2 2 2 2 2 2 2 2 2 2 2 3 3 3 3
3 3 3 3 4 2 4 7 7 5 4 5 5 5 5 4 4 5 4 4 4 3 3 2 2 2 2 2 2 1 1 1 1 1 2 2 2 2 2 2 2 2 2 3 3 3 3 3 3
3 4 5 2 2 3 6 9 3 2 4 5 5 5 5 5 5 4 4 4 3 3 3 2 2 2 2 2 2 2 2 2 2 2 2 3 3 3 3 2 2 2 3 3 3 3 3 3 3
5 6 7 3 2 3 6 9 4 3 4 6 6 5 5 5 5 4 4 3 3 3 3 3 2 3 2 2 2 2 2 2 2 2 2 3 3 4 3 2 2 2 2 3 3 3 3 3 3
6 7 7 6 1 4 8 11 9 7 7 7 6 6 5 5 5 4 4 3 3 3 3 3 3 3 2 2 2 2 2 2 2 2 2 3 3 4 4 3 3 2 2 3 3 3 3 3 2
5 6 8 6 4 6 9 12 11 9 8 8 7 6 6 6 4 3 3 3 3 3 3 3 3 3 2 2 2 2 3 3 2 2 3 4 3 4 4 3 3 3 3 3 3 3 3 2 1
6 7 7 5 3 5 8 12 10 8 8 7 7 6 6 5 4 3 3 3 3 3 3 3 3 3 3 3 2 3 3 3 3 3 3 4 4 4 4 4 4 3 3 4 4 3 2 2 2
7 8 7 6 6 5 7 9 7 5 5 4 5 6 6 6 5 4 4 3 3 3 3 3 3 4 4 3 2 2 2 3 3 3 3 4 4 4 4 5 4 4 4 4 4 4 4 3 3
6 4 5 6 6 4 5 7 5 4 5 5 5 4 5 5 5 4 4 4 4 4 3 4 4 4 4 3 3 4 3 4 4 4 3 4 4 4 4 4 5 4 4 5 4 4 4 4 3
2 2 4 5 6 7 6 8 6 3 6 5 5 4 5 4 4 5 4 4 4 3 3 3 4 4 4 4 4 4 4 4 4 4 4 4 4 4 4 4 4 5 4 5 5 5 5 4 5
1 1 2 3 4 7 7 8 6 3 6 6 5 5 5 4 4 4 3 3 3 3 3 3 4 4 4 4 5 5 5 5 5 5 5 4 3 3 4 4 4 5 5 5 6 6 6 6 6
2 2 2 3 4 5 2 7 7 3 4 5 6 5 4 3 3 3 3 3 3 3 3 4 4 5 5 5 5 5 6 6 7 6 5 5 4 4 4 4 4 4 5 5 6 6 6 6 6
3 3 3 4 4 2 3 7 3 2 3 4 4 5 4 3 3 4 4 4 4 4 4 4 5 5 5 5 5 5 6 4 5 6 5 5 4 4 5 5 5 6 6 6 6 5 6 6 6
3 3 2 2 3 6 5 5 5 1 2 3 4 4 4 4 4 4 4 4 5 5 5 5 5 5 5 5 5 5 5 5 5 6 5 5 5 5 6 6 5 6 6 6 6 5 6 6 6
2 1 2 3 4 5 5 5 3 2 3 4 5 6 6 5 5 5 5 5 5 5 5 5 5 6 6 5 5 4 5 5 6 5 6 6 6 6 6 6 6 6 6 6 6 5 5 5 5
3 2 3 3 4 5 5 2 1 2 3 4 6 6 6 6 6 6 6 6 5 5 5 5 5 5 5 5 5 5 5 5 5 5 6 6 6 6 6 6 6 6 6 6 5 5 5 5 5
3 4 4 4 4 4 5 4 2 2 4 4 6 7 7 7 6 6 6 6 5 5 5 5 5 5 5 5 5 5 5 5 5 5 6 6 6 6 6 6 6 6 6 5 5 5 5 5 5
Wind_Direction
328 309 251 226 215 223 235 220 211 187 192 65 329 250 252 286 315 55 65 46 40 62 95 117 85 77 81 89 111 114 114 113 117 118 118 118 120 116 109 107 103 104 104 100 101 101 100 96 94
321 271 218 223 232 226 225 216 213 207 121 102 187 231 214 126 40 64 76 28 32 65 90 91 80 74 77 83 97 111 115 110 109 109 109 108 110 112 112 110 105 104 104 100 99 100 100 98 95
273 277 222 215 229 238 232 189 201 157 160 202 194 286 320 58 64 71 43 21 43 77 87 84 70 70 72 78 89 97 107 111 108 109 103 103 110 110 113 113 107 103 105 103 103 103 104 105 103
210 188 209 228 226 237 263 169 143 160 169 211 228 175 106 51 40 56 49 43 72 76 78 82 63 74 74 72 81 91 90 101 108 106 101 97 110 118 117 112 108 106 109 111 111 111 110 107 103
223 206 204 223 235 234 243 243 195 206 186 178 217 224 148 96 64 81 70 56 71 68 57 74 51 71 80 75 74 81 88 86 92 98 98 93 92 109 116 116 113 110 112 116 123 124 121 118 109
193 212 221 228 228 227 228 222 215 228 221 207 221 229 166 112 96 77 60 57 63 62 55 70 54 52 73 79 75 74 74 77 79 81 93 93 84 95 116 118 119 121 124 125 130 131 132 128 123
213 212 236 236 236 233 219 206 221 231 229 228 236 221 170 151 99 77 66 62 60 58 57 57 68 56 54 71 70 70 67 63 66 70 77 85 80 91 116 113 117 127 141 138 138 145 140 140 135
252 223 228 228 233 233 168 183 254 250 253 16 242 232 198 157 120 111 82 67 65 58 50 48 49 48 50 75 75 68 65 63 60 60 54 60 89 102 108 121 111 134 153 153 148 147 151 144 132
217 223 229 225 229 216 154 190 147 306 209 212 256 305 0 119 167 165 129 72 59 45 37 41 42 33 30 35 64 85 82 72 70 77 58 60 163 162 154 113 91 129 168 173 166 162 156 153 146
205 224 233 247 256 233 191 228 216 212 221 227 222 226 161 172 187 196 207 199 63 23 17 18 30 23 25 21 41 209 171 150 159 127 100 203 212 169 243 129 97 126 173 193 186 179 174 185 180
199 226 221 226 270 254 238 244 242 237 243 245 248 227 195 190 198 209 218 216 227 305 351 0 359 358 4 9 357 309 253 207 203 211 281 262 222 195 217 199 173 186 191 200 200 198 200 208 206
198 217 230 237 255 243 246 247 250 252 266 298 280 233 199 203 207 214 223 227 231 259 311 343 348 326 318 329 311 287 276 249 224 230 262 269 262 242 215 222 256 236 228 228 229 231 223 224 218
212 216 229 257 266 262 257 252 262 264 269 277 261 215 215 214 222 229 235 236 243 257 285 318 328 322 301 295 285 282 264 278 260 245 248 263 252 258 244 229 238 246 255 238 249 240 231 233 233
193 206 244 265 253 242 244 264 256 259 259 238 227 233 236 234 231 235 241 246 250 255 267 283 293 309 292 269 264 266 270 262 276 263 251 252 257 254 256 240 242 248 251 250 252 256 240 235 239
188 227 246 240 243 232 248 260 243 250 241 239 241 249 247 242 239 239 245 249 252 253 265 277 287 291 292 273 268 268 268 258 256 270 269 251 254 255 256 249 243 254 260 257 249 250 244 236 236
204 222 234 201 228 221 234 258 253 236 245 256 259 255 249 242 240 245 247 251 255 252 253 267 277 277 286 293 275 270 274 271 257 252 264 262 251 253 249 247 250 256 252 247 246 245 246 239 236
205 234 242 238 222 236 237 264 262 258 264 266 265 261 254 250 248 249 249 248 249 249 245 247 259 266 272 283 277 269 273 272 265 255 259 263 258 251 248 245 250 256 251 247 243 246 248 251 247
224 237 244 246 240 253 250 260 267 265 264 266 265 262 257 254 254 255 251 250 250 252 253 251 255 267 273 270 272 258 250 258 266 262 260 260 256 250 245 242 245 248 250 247 245 251 250 255 260
252 250 258 267 286 274 262 269 272 274 261 259 257 256 257 260 262 255 253 249 250 255 257 257 259 266 269 271 272 262 257 259 259 257 263 261 262 256 242 244 240 238 245 249 246 245 244 251 264
237 246 260 274 283 279 278 276 273 263 255 256 259 259 262 269 269 259 256 252 252 253 259 262 258 261 264 269 272 269 271 266 272 269 257 254 257 262 250 241 240 238 244 248 244 239 239 259 241
240 246 261 274 295 259 278 268 244 242 245 258 264 265 265 262 265 263 262 258 259 261 264 269 267 262 263 269 271 272 258 257 258 261 259 255 254 251 259 256 245 241 239 240 241 232 233 246 244
250 251 259 268 271 269 276 277 254 255 247 255 263 266 269 262 261 261 261 265 267 268 268 269 270 266 263 258 255 255 257 258 265 266 265 267 258 254 253 262 253 243 242 242 241 237 237 236 241
256 288 262 262 261 271 247 259 260 246 259 265 272 283 283 274 266 263 262 265 272 279 277 276 272 270 268 263 259 259 262 264 265 266 267 269 262 254 252 255 260 249 244 244 244 242 240 234 237
191 221 243 234 236 251 241 244 263 247 269 283 287 292 290 290 288 281 276 275 278 287 285 282 276 272 268 261 257 257 260 266 264 264 265 266 268 264 256 253 258 258 248 246 245 241 241 240 241
220 229 242 225 220 239 197 245 257 279 288 291 298 305 305 300 295 292 289 281 284 288 288 282 278 276 274 269 260 257 257 260 258 259 260 263 262 263 262 255 257 262 257 251 249 246 245 241 244
216 237 251 266 261 273 218 243 261 324 309 302 303 304 308 312 313 306 301 289 283 281 278 277 280 277 274 273 270 264 262 258 257 254 255 255 257 260 262 258 257 261 262 254 247 249 248 247 245
194 211 293 275 280 268 244 258 268 248 305 329 333 332 328 327 322 312 307 297 287 283 278 276 276 276 274 272 272 268 267 262 261 260 255 254 255 258 259 258 256 256 260 256 250 246 245 247 246
297 176 193 222 255 261 256 251 259 291 324 343 342 338 334 329 322 322 317 310 299 289 282 277 274 275 275 272 267 268 266 267 265 263 259 256 256 255 257 257 257 256 259 258 248 251 247 245 248
182 192 223 231 263 272 274 259 36 308 327 324 328 329 327 324 322 321 320 314 306 299 289 282 277 276 275 276 274 270 269 271 267 262 262 258 254 251 251 252 254 255 260 258 247 246 244 244 247
265 242 216 240 238 250 275 279 61 321 324 319 322 322 322 323 322 319 318 316 311 304 299 293 286 281 281 281 278 273 272 273 268 264 263 260 256 253 250 248 250 252 256 253 247 246 245 245 246